Location: Akdamlar
(36.8729°N, 30.5187°E)
Time: 14:57:24
(UTC+00:00)

MetOp-A - Pass Details

Date: 18 September 2020
Orbit: 820 x 821 km, 98.5° (Epoch: 20 October)

Event Time Altitude Azimuth Distance (km) Brightness Sun altitude
Exits shadow 18:22:25 50° 212° (SSW) 1,034 4.6 -28.2°
Maximum altitude 18:23:29 61° 259° (WSW) 931 4.5 -28.4°
Drops below altitude 10° 18:28:47 10° 339° (NNW) 2,423 7.1 -29.4°
Sets 18:31:11 0° 343° (NNW) 3,359 7.9 -29.8°
